Regional Weather Roundup
Issued by NWS

Home | Current Version | Previous Version | Text Only | Print | Product List | Glossary Off
Versions: 1 2 3 4 5 6 7 8 9 10 11 12 13 14 15 16 17 18 19 20 21 22 23 24 25 26 27 28 29 30 31 32 33 34 35 36 37 38 39 40 41 42 43 44 45 46 47 48 49 50

000
ASUS43 KOAX 200302
RWRNE

WEATHER ROUNDUP FOR NEBRASKA
NATIONAL WEATHER SERVICE OMAHA NE
1000 PM CDT THU APR 19 2018

NOTES: SATELLITE DATA IS BEING USED TO AUGMENT CLOUD COVER ABOVE
       12000 FEET.
       "FAIR" INDICATES FEW OR NO CLOUDS BELOW 12,000 FEET WITH NO
       SIGNIFICANT WEATHER AND/OR OBSTRUCTIONS TO VISIBILITY.


NEZ001>004-019>022-054>056-200400-
NEBRASKA PANHANDLE

CITY           SKY/WX    TMP DP  RH WIND       PRES   REMARKS
SCOTTSBLUFF    MOCLDY    49  31  49 SE21G28   30.09R
ALLIANCE       CLOUDY    48  29  47 SE25G32   30.13R
CHADRON        CLOUDY    53  28  38 SE20G29   30.13R
GORDON         FAIR      46  30  54 SE12      30.18S
KIMBALL        CLOUDY    49  25  38 SE25G31   30.08S
SIDNEY         CLOUDY    49  28  44 SE25G36   30.12R
$$

NEZ057>060-069>072-079>082-200400-
SOUTHWEST NEBRASKA

CITY           SKY/WX    TMP DP  RH WIND       PRES   REMARKS
NORTH PLATTE   CLOUDY    43  29  57 SE10      30.25F
IMPERIAL       CLOUDY    48  26  42 E20       30.19R
LEXINGTON      MOCLDY    45  28  51 E7        30.31R
MCCOOK         MOCLDY    46  27  47 E15       30.25R
OGALLALA       CLOUDY    49  28  43 E16       30.21R
$$

NEZ005>010-023>029-035>040-094-200400-
NORTH CENTRAL NEBRASKA

CITY           SKY/WX    TMP DP  RH WIND       PRES   REMARKS
VALENTINE      MOCLDY    43  29  57 E10       30.29S
AINSWORTH      PTCLDY    37  31  79 E7        30.31S WCI  31
BROKEN BOW     MOCLDY    43  28  55 SE7       30.31R
O`NEILL        PTCLDY    41  30  65 E7        30.36R
ORD            PTCLDY    39  26  59 CALM      30.33R
THEDFORD       CLOUDY    45  29  55 SE9       30.28S
$$

NEZ041-046>049-061>064-073>077-083>087-200400-
SOUTH CENTRAL NEBRASKA

CITY           SKY/WX    TMP DP  RH WIND       PRES   REMARKS
GRAND ISLAND   PTCLDY    44  28  53 E7        30.34R
AURORA         CLEAR     38  24  56 E7        30.35R WCI  33
HASTINGS       CLOUDY    47  27  45 SE9       30.33R
HEBRON         CLEAR     40  27  57 SE3       30.36R
HOLDREGE       CLOUDY    39  28  64 SE9       30.31S WCI  32
KEARNEY        CLOUDY    43  27  53 SE9       30.33R
YORK             N/A     41  27  56 CALM      30.36R
$$

NEZ011>018-030>034-042>045-200400-
NORTHEAST NEBRASKA

CITY           SKY/WX    TMP DP  RH WIND       PRES   REMARKS
NORFOLK        CLOUDY    40  29  64 E8        30.36R WCI  34
ALBION         CLOUDY    41  26  55 SE5       30.36R
BLAIR          CLOUDY    45  28  51 NE9       30.38R
COLUMBUS       CLEAR     40  28  62 E5        30.38R
FREMONT        CLEAR     49  29  45 CALM      30.39R
TEKAMAH        CLEAR     43  31  62 E10       30.40R
WAYNE          CLOUDY    39  33  80 E12       30.39R WCI  31
$$

NEZ050>053-065>068-078-088>093-200400-
SOUTHEAST NEBRASKA

CITY           SKY/WX    TMP DP  RH WIND       PRES   REMARKS
LINCOLN        CLEAR     50  27  40 E6        30.38R
OMAHA EPPLEY   CLOUDY    49  26  41 E12       30.39R
BEATRICE       CLOUDY    47  28  47 E3        30.37R
FALLS CITY     CLOUDY    45  26  47 E5        30.37R
NEBRASKA CITY  CLOUDY    48  28  45 E6        30.38R
PLATTSMOUTH    CLOUDY    48  26  43 E7        30.38R HAZE
$$

NEZ044-045-051>053-067-200400-
OMAHA AREA

CITY           SKY/WX    TMP DP  RH WIND       PRES   REMARKS
OMAHA EPPLEY   CLOUDY    49  26  41 E12       30.39R
BLAIR          CLOUDY    45  28  51 NE9       30.38R
FREMONT        CLEAR     49  29  45 CALM      30.39R
MILLARD        CLOUDY    52  28  40 E3        30.38R
OFFUTT AFB     PTCLDY    41  26  55 NE6       30.37R
PLATTSMOUTH    CLOUDY    48  26  43 E7        30.38R HAZE
WAHOO          FAIR      45  23  42 E5        30.38R
$$




USA.gov is the U.S. government's official web portal to all federal, state and local government web resources and services.